Clarksburg, WV

4:34 PM EDT on May 22, 2017 (GMT -0400)
Benedum

Weather History for KCKB - September, 2012

Change the Weather History Date:

Tuesday, September 25, 2012

  Actual Average Record
Temperature  
Mean Temperature 52 °F -  
Max Temperature 69 °F 69 °F 94 °F (1930)
Min Temperature 37 °F 48 °F 32 °F (1942)
Degree Days  
Heating Degree Days 12    
Growing Degree Days 2 (Base 50)    
Moisture  
Dew Point 45 °F    
Average Humidity 74    
Maximum Humidity 93    
Minimum Humidity 42    
Precipitation  
Precipitation 0.01 in - - ()
Sea Level Pressure  
Sea Level Pressure 30.11 in    
Wind  
Wind Speed 2 mph (SSW)    
Max Wind Speed 12 mph    
Max Gust Speed 20 mph    
Visibility 10 miles    
Events Rain    
Averages and records for this station are not official NWS values.
T = Trace of Precipitation, MM = Missing Value Source: NWS Daily Summary

Daily Weather History Graph

Daily Weather History Graph

Search for Another Location

Airport or City:

Trip Planner

Search our weather history database for the weather conditions in past years. The results will help you decide how hot, cold, wet, or windy it might be!

Date:

Astronomy

Sep. 25, 2012 Rise Set
Actual Time 7:11 AM EDT 7:12 PM EDT
Civil Twilight 6:45 AM EDT 7:39 PM EDT
Nautical Twilight 6:13 AM EDT 8:10 PM EDT
Astronomical Twilight 5:42 AM EDT 8:41 PM EDT
Moon 4:35 PM EDT (9/25) 2:33 AM EDT (9/25)
Length of Visible Light 12h 53m
Length of Day
12h 00m
Waxing Gibbous, 80% of the Moon is Illuminated
Sep 25
Waxing Gibbous
Sep 29
Full
Oct 8
Last Quarter
Oct 15
New
Oct 21
First Quarter

Hourly Weather History & Observations

Time (EDT) Temp. Dew Point Humidity Pressure Visibility Wind Dir Wind Speed Gust Speed Precip Events Conditions
12:53 AM 43.0 °F 39.0 °F 86% 30.13 in 10.0 mi Calm Calm - N/A   Clear
1:53 AM 41.0 °F 37.9 °F 89% 30.14 in 10.0 mi Calm Calm - N/A   Clear
2:53 AM 41.0 °F 37.9 °F 89% 30.14 in 10.0 mi Calm Calm - N/A   Clear
3:53 AM 39.0 °F 37.0 °F 93% 30.13 in 10.0 mi Calm Calm - N/A   Clear
4:53 AM 37.9 °F 36.0 °F 93% 30.13 in 10.0 mi Calm Calm - N/A   Clear
5:53 AM 37.9 °F 36.0 °F 93% 30.14 in 10.0 mi Calm Calm - N/A   Clear
6:53 AM 39.0 °F 37.0 °F 93% 30.14 in 10.0 mi Calm Calm - N/A   Clear
7:53 AM 41.0 °F 37.9 °F 89% 30.15 in 10.0 mi Calm Calm - N/A   Clear
8:53 AM 48.9 °F 44.1 °F 83% 30.13 in 10.0 mi Calm Calm - N/A   Clear
9:53 AM 57.0 °F 45.0 °F 64% 30.14 in 10.0 mi Calm Calm - N/A   Clear
10:53 AM 63.0 °F 44.1 °F 50% 30.15 in 10.0 mi SSW 6.9 mph - N/A   Partly Cloudy
11:53 AM 64.0 °F 42.1 °F 45% 30.14 in 10.0 mi SSW 8.1 mph - N/A   Overcast
12:53 PM 68.0 °F 44.1 °F 42% 30.14 in 10.0 mi SSW 11.5 mph 19.6 mph 0.01 in   Scattered Clouds
1:53 PM 68.0 °F 45.0 °F 43% 30.12 in 10.0 mi SSW 9.2 mph - N/A   Overcast
2:53 PM 66.2 °F 44.6 °F 46% 30.12 in 10.0 mi SSW 9.2 mph - N/A   Overcast
3:53 PM 66.0 °F 45.0 °F 47% 30.09 in 10.0 mi SSW 8.1 mph - N/A   Overcast
4:53 PM 63.0 °F 48.9 °F 60% 30.08 in 10.0 mi SSW 9.2 mph - N/A   Scattered Clouds
5:28 PM 60.8 °F 50.0 °F 68% 30.10 in 10.0 mi SSW 11.5 mph - N/A   Mostly Cloudy
5:53 PM 61.0 °F 51.1 °F 70% 30.07 in 10.0 mi South 10.4 mph - N/A   Overcast
6:53 PM 59.0 °F 52.0 °F 78% 30.05 in 10.0 mi SSW 3.5 mph - N/A   Clear
7:53 PM 57.0 °F 52.0 °F 83% 30.06 in 10.0 mi Calm Calm - N/A   Partly Cloudy
8:53 PM 57.9 °F 53.1 °F 84% 30.08 in 10.0 mi Calm Calm - N/A   Scattered Clouds
9:53 PM 57.0 °F 53.1 °F 87% 30.06 in 10.0 mi South 3.5 mph - 0.00 in   Mostly Cloudy
10:53 PM 57.9 °F 53.1 °F 84% 30.06 in 10.0 mi Calm Calm - N/A   Overcast
11:53 PM 59.0 °F 54.0 °F 83% 30.06 in 10.0 mi Calm Calm - 0.00 in Rain Light Rain